SCP
0 0 0 0 0 0 0 0 0 0 0 0 0 0 0 0 0 0 0 0 0 0 0 0 0 0 0 0 0 0 0 0 0 0 0 0 0 0 0 0 0 0 0 0
0 0 0 0 0 0 0 0 0 0 0 0 0 0 0 0 0 0 0 0 0 0 0 0 0 0 0 0 0 0 0 0 0 0 0 0 0 0 0 0 0 0 0 0
0 0 0 0 0 0 0 0 0 0 0 0 0 0 0 0 0 0 0 0 0 0 0 0 0 0 0 0 0 0 0 0 0 0 0 0 0 0 0 0 0 0 0 0
0 0 0 0 0 0 0 0 0 0 0 0 0 0 0 0 0 0 0 0 0 0 0 0 0 0 0 0 0 0 0 0 0 0 0 0 0 0 0 0 0 0 0 0
0 0 0 0 0 0 0 0 0 0 0 0 0 0 0 0 0 0 0 0 0 0 0 0 0 0 0 0 0 0 0 0 0 0 0 0 0 0 0 0 0 0 0 0
0 0 0 0 0 0 0 0 0 0 0 0 0 0 0 0 0 0 0 0 0 0 0 0 0 0 0 0 0 0 0 0 0 0 0 0 0 0 0 0 0 0 0 0
0 0 0 0 0 0 0 0 0 0 0 0 0 0 0 0 0 0 0 0 0 0 0 0 0 0 0 0 0 0 0 0 0 0 0 0 0 0 0 0 0 0 0 0
0 0 0 0 0 0 0 0 0 0 0 0 0 0 0 0 0 0 0 0 0 0 0 0 0 0 0 0 0 0 0 0 0 0 0 0 0 0 0 0 0 0 0 0
0 0 0 0 0 0 0 0 0 0 0 0 0 0 0 0 0 0 0 0 0 0 0 0 0 0 0 0 0 0 0 0 0 0 0 0 0 0 0 0 0 0 0 0
0 0 0 0 0 0 0 0 0 0 0 0 0 0 0 0 0 0 0 0 0 0 0 0 0 0 0 0 0 0 0 0 0 0 0 0 0 0 0 0 0 0 0 0
0 0 0 0 0 0 0 0 0 0 0 0 0 0 0 0 0 0 0 0 0 0 0 0 0 0 0 0 0 0 0 0 0 0 0 0 0 0 0 0 0 0 0 0
0 0 0 0 0 0 0 0 0 0 0 0 0 0 0 0 0 0 0 0 0 0 0 0 0 0 0 0 0 0 0 0 0 0 0 0 0 0 0 0 0 0 0 0
0 0 0 0 0 0 0 0 0 0 0 0 0 0 0 0 0 0 0 0 0 0 0 0 0 0 0 0 0 0 0 0 0 0 0 0 0 0 0 0 0 0 0 0
0 0 0 0 0 0 0 0 0 0 0 0 0 0 0 0 0 0 0 0 0 0 0 0 0 0 -0 -0 0 0 0 0 0 0 0 0 0 0 0 0 0 0 0 0
0 0 0 0 0 0 0 0 0 0 0 0 0 0 0 0 0 0 0 0 0 0 0 0 0 0 0 -0 0 0 0 0 0 0 0 0 0 0 0 0 0 0 0 0
0 0 0 0 0 0 0 0 0 0 0 0 0 0 0 0 0 0 0 0 0 0 0 0 0 0 0 0 -0 0 0 0 0 0 0 0 0 0 0 0 0 0 0 0
0 0 0 0 0 0 0 0 0 0 0 0 0 0 0 0 0 0 0 0 0 0 0 0 0 0 0 0 -0 0 0 0 0 0 0 0 0 0 0 0 0 0 0 0
0 0 0 0 0 0 0 0 0 0 0 0 0 0 0 0 0 0 0 0 0 0 0 0 0 0 0 0 0 0 0 0 0 0 0 0 0 0 0 0 0 0 0 0
0 0 0 0 0 0 0 0 0 0 0 0 0 0 0 0 0 0 0 0 0 0 0 0 0 0 0 0 -0 -0 0 0 0 0 0 0 0 0 0 0 0 0 0 0
0 0 0 0 0 0 0 0 0 0 0 0 0 0 0 0 0 0 0 -0 -0 0 0 0 0 0 0 0 -0 -0 -0 0 0 0 0 0 0 0 0 0 0 0 0 0
0 0 0 0 0 0 0 0 0 0 0 0 0 0 0 0 0 0 0 0 0 0 0 0 0 0 0 0 -0 -0 -0 0 0 0 0 0 0 0 0 0 0 0 0 0
0 0 0 0 0 0 0 0 0 0 0 0 0 0 0 0 0 0 0 0 0 0 0 0 0 0 0 0 0 0 0 0 0 0 0 0 0 0 0 0 0 0 0 0
0 0 0 0 0 0 0 0 0 0 0 0 0 0 0 0 0 0 0 0 0 0 0 0 0 0 0 0 0 0 0 0 0 0 0 0 0 0 0 0 0 0 0 0
0 0 0 0 0 0 0 0 0 0 0 0 0 0 0 0 0 0 0 0 0 0 0 0 0 0 0 0 0 0 0 0 0 0 0 0 0 0 0 0 0 0 0 0
0 0 0 0 0 0 0 0 0 0 0 0 0 0 0 0 0 0 0 0 0 0 0 0 0 0 0 0 0 0 0 0 -0 0 0 -0 0 0 0 0 0 0 0 0
0 0 0 0 0 0 0 0 0 0 0 0 0 0 0 0 0 0 0 0 0 0 0 0 0 0 0 0 0 0 0 0 -0 0 0 -0 -0 0 0 0 0 0 0 0
Wind_Speed
7 8 12 13 16 14 10 12 13 10 5 8 13 15 13 11 11 11 11 10 9 8 8 8 8 8 8 9 9 10 11 11 9 8 8 8 9 7 6 6 8 9 9 9
6 15 15 12 12 14 14 14 15 10 6 6 11 16 14 13 14 12 11 10 10 9 8 7 8 8 9 9 10 10 11 11 11 9 9 8 7 7 7 6 8 10 10 10
15 10 10 13 14 14 15 15 14 11 7 7 10 14 15 14 15 13 11 10 10 10 9 8 7 8 8 9 9 9 10 11 11 10 7 6 5 5 6 8 8 9 10 10
13 12 11 13 14 14 15 12 12 11 9 7 7 11 11 11 13 15 14 12 12 11 10 8 7 7 8 8 8 8 9 9 10 10 9 10 9 10 10 7 7 7 9 10
9 8 10 13 14 12 10 6 9 10 10 11 10 11 9 8 12 12 12 12 12 11 10 9 8 7 6 7 7 7 8 8 8 9 10 10 10 8 6 5 7 8 8 9
13 9 8 10 9 8 5 4 6 7 6 13 15 13 10 9 12 11 11 11 10 8 8 7 6 5 5 5 5 6 7 7 8 8 10 10 11 9 8 8 8 7 6 7
10 12 9 8 8 8 7 5 4 7 9 11 10 13 11 6 8 9 9 9 8 7 7 6 4 5 5 5 5 5 6 7 7 7 9 10 10 10 10 9 8 7 6 6
8 8 10 7 10 9 11 11 8 6 6 6 8 13 9 6 5 4 3 4 4 5 5 4 4 4 4 4 5 5 6 6 6 7 8 8 9 8 7 8 7 7 6 7
6 7 6 8 6 8 9 11 9 6 4 6 7 8 7 3 4 3 3 3 2 2 3 3 3 2 2 2 3 4 5 5 5 6 7 7 7 8 7 7 7 5 5 5
5 7 6 6 6 9 8 6 4 7 6 8 8 10 8 5 5 4 5 4 3 2 1 1 1 2 2 2 1 2 2 3 3 4 5 5 6 7 7 6 6 6 6 6
8 6 6 5 9 10 8 9 7 5 6 5 6 6 4 4 4 5 4 3 2 1 1 0 0 0 1 2 2 1 2 2 2 2 3 4 4 4 5 6 6 6 5 6
7 5 7 9 8 9 10 11 10 7 7 6 7 6 2 2 1 1 1 1 2 1 1 1 1 1 2 1 1 2 2 2 2 2 2 3 3 3 4 5 5 5 5 5
4 5 5 5 5 6 8 9 10 8 6 6 8 8 2 3 3 3 1 1 2 2 2 1 1 1 2 2 3 3 2 2 1 2 2 2 2 2 3 3 3 4 4 4
6 7 8 10 6 5 8 10 10 10 9 9 12 12 8 5 4 4 4 3 2 2 2 2 2 2 2 2 3 3 2 2 1 1 1 2 2 2 3 3 3 3 4 4
4 8 9 11 11 9 10 12 13 15 14 12 13 15 14 9 6 6 5 4 4 3 3 3 3 3 3 3 3 3 2 2 1 1 2 2 2 1 1 1 2 2 3 3
4 6 7 11 11 11 13 15 16 17 16 16 16 19 13 11 8 7 6 5 5 4 4 3 3 3 4 4 3 3 3 2 2 2 2 2 1 1 1 1 1 2 2 2
5 4 5 10 9 8 13 14 16 16 15 15 19 19 12 11 10 8 5 4 4 4 3 4 4 4 4 4 4 4 3 2 2 2 2 1 1 2 2 2 2 2 2 3
8 7 5 6 5 15 12 8 12 15 16 15 14 12 10 9 8 5 3 2 4 4 4 4 4 4 3 3 3 2 1 1 2 2 2 2 2 2 2 2 2 2 2 3
10 9 6 5 10 12 9 7 8 11 15 10 10 10 9 8 7 5 2 2 3 4 3 3 3 3 3 3 2 1 1 1 2 3 3 3 2 2 2 3 2 2 2 2
7 8 7 7 9 10 7 5 5 6 11 5 5 7 7 5 6 6 3 5 5 5 3 3 3 3 3 3 1 1 2 2 3 4 3 3 3 3 3 3 2 1 2 2
4 6 10 11 11 10 6 4 2 8 7 3 4 5 6 5 7 6 5 5 5 4 3 3 3 3 3 3 1 2 3 4 4 2 2 2 2 2 2 2 2 2 2 2
6 6 7 8 11 11 2 1 5 5 4 3 4 5 6 7 7 6 6 5 5 4 3 3 2 3 3 2 2 3 4 3 2 1 1 1 1 2 1 2 2 2 3 3
8 7 5 8 9 6 4 5 5 4 5 5 5 6 6 7 8 7 6 6 5 4 3 3 2 4 4 3 2 3 4 2 1 1 1 1 1 1 2 2 3 3 3 3
6 6 7 10 10 9 8 7 6 5 6 6 5 5 5 7 7 7 5 5 4 4 4 3 2 3 4 4 3 2 2 1 1 2 2 1 2 2 2 1 2 2 3 3
7 5 8 12 11 9 9 8 7 7 6 7 7 6 6 6 7 6 5 5 4 4 3 2 2 3 3 4 4 3 1 1 2 2 2 2 2 2 2 2 1 2 2 3
8 9 11 13 9 9 10 7 7 8 8 7 8 8 6 5 7 6 5 4 3 3 2 2 2 2 3 3 3 4 2 1 2 2 2 2 2 2 2 2 1 2 1 2
Wind_Direction
199 212 219 218 223 243 264 265 259 255 245 240 244 251 250 246 248 249 242 237 234 230 219 205 196 190 184 183 187 193 194 194 188 189 192 196 203 204 206 206 201 199 200 200
221 231 233 238 239 245 251 259 264 272 258 256 263 259 253 249 245 244 246 239 236 240 234 214 196 189 187 187 189 194 198 195 193 196 196 199 198 201 208 209 205 203 203 201
229 240 233 234 238 240 243 245 251 259 274 268 278 268 246 241 240 242 242 242 237 236 237 226 205 194 190 192 192 196 199 198 198 195 191 190 193 200 205 210 211 207 204 204
240 243 240 237 238 233 245 244 252 260 261 255 234 270 249 233 231 230 230 230 233 232 232 230 221 206 195 196 196 198 197 198 198 193 192 191 198 204 208 206 204 201 202 205
239 234 236 238 238 237 250 262 259 257 254 258 244 260 260 226 234 230 222 223 226 227 225 224 219 213 205 195 194 198 198 200 198 194 194 198 206 211 209 198 197 201 203 205
253 251 239 240 244 242 253 262 272 261 249 247 233 238 261 222 228 224 220 220 222 218 218 219 216 208 210 203 192 192 197 202 200 198 197 199 205 207 206 204 202 202 202 204
248 244 235 226 232 230 215 205 220 214 218 238 213 226 246 226 228 223 219 215 213 211 209 210 214 211 207 204 201 195 197 203 201 201 202 204 207 207 210 209 207 202 203 204
230 237 218 212 215 216 214 207 215 222 225 245 213 229 243 219 221 224 225 213 205 205 205 206 212 216 215 208 199 196 202 208 203 206 209 208 208 210 215 215 213 209 208 207
241 246 220 219 221 219 213 220 232 258 273 270 248 252 258 226 199 187 209 224 227 218 210 211 212 210 213 215 205 201 205 212 213 210 212 213 210 211 213 212 214 215 212 205
271 270 256 231 225 227 225 217 211 218 227 242 244 240 244 225 217 218 210 213 221 223 198 191 215 213 192 199 222 209 203 211 223 221 213 215 217 214 212 209 210 211 211 206
262 258 260 229 212 216 216 220 221 224 222 223 251 248 224 216 203 203 218 227 235 260 279 302 299 324 229 206 212 228 231 228 230 231 223 217 219 218 214 212 212 211 209 205
243 252 249 246 241 236 229 228 220 225 236 235 252 256 7 18 35 149 205 249 282 292 313 347 2 2 358 336 294 250 237 228 225 225 228 229 225 216 218 216 212 206 205 200
244 244 254 259 245 228 232 232 233 241 247 241 243 256 272 316 333 332 316 280 277 288 299 305 333 328 315 317 319 307 283 259 248 223 217 225 228 222 223 227 218 204 197 194
268 242 235 241 251 245 248 247 240 236 239 246 244 260 278 284 296 302 299 302 301 290 287 293 289 291 292 296 304 309 310 299 269 231 212 223 231 230 231 231 225 208 192 187
260 251 249 262 271 263 255 254 245 240 239 244 255 261 264 267 269 275 281 282 283 274 279 280 281 281 285 281 291 298 298 297 286 250 235 236 241 236 234 235 225 212 194 188
249 261 269 267 264 265 264 255 252 250 246 248 258 263 262 269 271 269 264 262 272 273 276 282 285 283 276 269 267 272 265 262 244 225 236 241 228 221 218 223 217 197 188 179
231 238 252 261 265 277 253 241 243 243 242 244 250 257 265 267 270 268 265 270 275 282 284 283 278 275 274 269 262 257 256 257 234 232 236 229 209 213 212 199 188 192 195 180
233 236 242 262 257 243 245 232 237 247 250 247 252 261 265 268 271 272 277 275 285 296 301 301 298 288 283 283 279 265 256 232 226 230 233 223 205 209 207 191 189 198 194 186
223 224 232 235 247 260 263 247 239 248 255 251 256 267 278 286 281 265 293 300 290 290 292 290 295 298 294 286 276 249 257 254 247 244 240 234 215 204 195 195 195 194 184 191
227 216 226 238 245 244 248 246 248 258 259 259 258 270 284 296 274 269 317 315 309 306 304 306 315 317 301 297 288 240 248 244 247 248 244 235 211 202 200 198 190 178 174 178
219 219 224 238 251 257 266 276 225 227 248 287 276 280 287 269 259 279 299 299 298 295 303 314 320 313 302 301 285 257 257 254 258 263 243 227 211 204 196 177 165 155 148 140
219 229 229 230 242 252 268 239 219 250 289 298 292 289 288 283 282 287 292 295 300 299 301 311 315 305 306 297 260 260 266 272 277 260 228 215 209 198 176 161 158 156 150 149
223 222 228 226 241 265 259 242 253 274 279 286 289 289 287 289 285 287 290 295 300 299 297 301 286 292 303 302 265 260 279 289 282 247 219 198 167 164 169 170 167 163 161 163
245 243 253 262 261 266 272 276 283 284 277 282 283 287 286 284 284 283 283 285 291 297 292 293 284 282 302 319 313 278 274 278 230 213 210 185 167 164 160 168 164 169 176 175
244 247 254 260 267 278 267 266 277 285 289 291 289 283 275 278 281 281 280 278 277 283 289 289 277 281 301 323 325 319 303 180 187 201 204 190 180 175 156 145 157 177 190 187
235 240 245 255 257 255 268 274 280 282 282 281 286 289 284 271 274 279 275 272 270 275 287 295 296 293 302 314 317 319 313 226 186 200 202 195 184 171 156 147 122 105 125 126